Погода в Экс-ан-Провансе

Франция     43°31′38″N   5°26′33″E
темп.,
°C
ветер,
м/с
пор.,
м/с
влажн.,
%
обл.,
%
осадки,
мм/ч
давл.,
гПа
погр.,
м
2 июля, сб
сб223:00+22зсз24388 0.0 1016264
02:00+20ссв12445 0.0 1017108
05:00+19св11485 0.0 101755
08:00+20св22430 0.0 1018180
11:00+28з11220 0.0 1018648
14:00+32зюз44125 0.0 10181329
17:00+32зюз44150 0.0 10171167
20:00+29зюз33250 0.0 1017498
3 июля, вс
вс323:00+24зсз22341 0.0 1019239
02:00+23ссв22360 0.0 101956
05:00+21св22370 0.0 101858
08:00+24ссв11306 0.0 101797
11:00+31зсз21170 0.0 1017605
14:00+34зюз431698 0.0 10171129
17:00+33зюз432095 0.0 1016986
20:00+31юз332432 0.0 1015494
4 июля, пн
пн423:00+27зюз353757 0.0 1018314
02:00+24всв2252100 0.0 1016144
05:00+23в234542 0.0 101472
08:00+25всв11400 0.0 1016169
11:00+32зсз12251 0.0 1016687
14:00+35зюз44220 0.0 10141757
17:00+34юз66294 0.0 10141444
20:00+30зюз46341 0.0 1015824
5 июля, вт
вт523:00+28юз23420 0.0 1015222
02:00+26сз24500 0.0 1015197
05:00+24сз25580 0.0 1016238
08:00+24ссз34520 0.0 1017292
11:00+30зсз46300 0.0 1017747
14:00+35зсз611180 0.0 10161857
17:00+35сз912160 0.0 10151898
20:00+33сз610208 0.0 10151489
6 июля, ср
ср623:00+28з3624100 0.0 1017311
02:00+26ссз262870 0.0 1018208
05:00+24св343199 0.0 1016153
08:00+25св11345 0.0 1017186
11:00+31сз33185 0.0 1017698
14:00+34зсз4415100 0.0 10161175
17:00+34зсз671635 0.0 10151445
20:00+32сз610190 0.0 1015856